Location: Unspecified
(0.0000°N, 0.0000°E)
Time: 23:07:55
(UTC+00:00)

Tiangong 2 - Pass Details

Date: 24 April 2018
Orbit: 381 x 388 km, 42.8° (Epoch: 26 April)

Event Time Altitude Azimuth Distance (km) Brightness Sun altitude
Rises 18:23:10 0° 299° (WNW) 2,243 6.8 -6.1°
Reaches altitude 10° 18:25:24 10° 286° (WNW) 1,392 5.7 -6.6°
Maximum altitude 18:28:08 28° 225° (SW) 755 2.9 -7.3°
Drops below altitude 10° 18:30:54 10° 164° (SSE) 1,393 3.6 -8.0°
Enters shadow 18:32:38 - 153° (SSE) 2,050 4.4 -8.4°
